| time (UTC) | temp F | wind direction | speed knots | gust knots | rain 1hr in | rain 24hr in | rain mn in | humidity % | barometer mb |
| 20260502123017 | 65 | 234 | 1.7 | 6.1 | 0.00 | 0.03 | 0.00 | 59 | 1016.0 |
| 20260502121520 | 65 | 128 | 0.9 | 5.2 | 0.00 | 0.03 | 0.00 | 57 | 1016.3 |
| 20260502114510 | 64 | 199 | 2.6 | 7.0 | 0.00 | 0.06 | 0.00 | 60 | 1016.6 |
| 20260502113013 | 64 | 277 | 2.6 | 5.2 | 0.00 | 0.06 | 0.00 | 61 | 1016.8 |
| 20260502111505 | 64 | 219 | 0.9 | 5.2 | 0.00 | 0.06 | 0.00 | 65 | 1017.1 |
| 20260502104559 | 61 | 263 | 3.5 | 7.0 | 0.00 | 0.06 | 0.00 | 68 | 1017.2 |
| 20260502103106 | 61 | 229 | 2.6 | 7.0 | 0.00 | 0.06 | 0.00 | 68 | 1017.1 |
| 20260502101619 | 60 | 258 | 2.6 | 5.2 | 0.00 | 0.06 | 0.00 | 69 | 1017.3 |
| 20260502071529 | 54 | 263 | 1.7 | 7.0 | 0.00 | 0.06 | 0.00 | 82 | 1018.4 |
| 20260502070027 | 54 | 134 | 0.0 | 4.3 | 0.00 | 0.06 | 0.00 | 84 | 1018.3 |
| 20260502064530 | 52 | 246 | 0.9 | 4.3 | 0.00 | 0.06 | 0.00 | 85 | 1018.5 |
| 20260502063024 | 53 | 82 | 0.0 | 0.0 | 0.00 | 0.06 | 0.00 | 84 | 1018.3 |
| 20260502061522 | 52 | 241 | 0.0 | 0.0 | 0.00 | 0.06 | 0.00 | 87 | 1018.2 |
| 20260502060023 | 50 | 246 | 0.0 | 0.0 | 0.00 | 0.06 | 0.00 | 88 | 1018.2 |
| 20260502054521 | 50 | 27 | 0.0 | 0.0 | 0.00 | 0.06 | 0.00 | 89 | 1018.1 |
| 20260502053020 | 49 | 49 | 0.0 | 0.0 | 0.00 | 0.06 | 0.00 | 90 | 1018.1 |
| 20260502051520 | 48 | 49 | 0.0 | 0.0 | 0.00 | 0.06 | 0.00 | 90 | 1018.0 |
| 20260502050024 | 49 | 266 | 0.0 | 0.0 | 0.00 | 0.06 | 0.00 | 89 | 1018.1 |
| 20260502044517 | 49 | 266 | 0.9 | 2.6 | 0.00 | 0.06 | 0.00 | 89 | 1018.1 |
| 20260502043017 | 49 | 258 | 0.0 | 1.7 | 0.00 | 0.06 | 0.00 | 89 | 1018.1 |
| 20260502041514 | 50 | 258 | 0.0 | 2.6 | 0.00 | 0.06 | 0.00 | 89 | 1018.2 |
| 20260502040018 | 50 | 261 | 0.9 | 3.5 | 0.00 | 0.06 | 0.00 | 89 | 1018.1 |
| 20260502034514 | 50 | 247 | 1.7 | 4.3 | 0.00 | 0.06 | 0.00 | 89 | 1018.2 |
| 20260502033007 | 50 | 242 | 0.0 | 1.7 | 0.00 | 0.06 | 0.00 | 90 | 1018.0 |
| 20260502031506 | 50 | 259 | 0.0 | 2.6 | 0.00 | 0.06 | 0.00 | 90 | 1018.2 |
| 20260502030004 | 51 | 237 | 1.7 | 3.5 | 0.00 | 0.06 | 0.00 | 90 | 1018.2 |
| 20260502024501 | 51 | 256 | 0.0 | 0.0 | 0.00 | 0.06 | 0.00 | 90 | 1018.3 |
| 20260502023101 | 52 | 253 | 0.0 | 0.0 | 0.00 | 0.06 | 0.00 | 89 | 1018.3 |
| 20260502021558 | 52 | 264 | 0.0 | 1.7 | 0.00 | 0.06 | 0.00 | 89 | 1018.4 |
| 20260502020054 | 53 | 228 | 0.0 | 0.9 | 0.00 | 0.06 | 0.00 | 89 | 1018.6 |
| 20260502014556 | 53 | 262 | 0.0 | 0.9 | 0.00 | 0.06 | 0.00 | 89 | 1018.6 |
| 20260502013055 | 54 | 259 | 0.0 | 2.6 | 0.00 | 0.06 | 0.00 | 88 | 1018.8 |
| 20260502011603 | 54 | 263 | 0.9 | 3.5 | 0.00 | 0.06 | 0.00 | 88 | 1019.1 |
| 20260502010047 | 54 | 278 | 1.7 | 6.1 | 0.00 | 0.06 | 0.00 | 88 | 1019.3 |
| 20260502004557 | 55 | 268 | 0.9 | 3.5 | 0.00 | 0.06 | 0.00 | 88 | 1019.3 |
| 20260502003042 | 55 | 226 | 2.6 | 7.0 | 0.00 | 0.06 | 0.00 | 88 | 1019.3 |
| 20260502001541 | 55 | 245 | 1.7 | 6.1 | 0.00 | 0.06 | 0.00 | 87 | 1019.2 |
| 20260502000045 | 55 | 203 | 2.6 | 7.0 | 0.00 | 0.06 | 0.00 | 88 | 1019.2 |
| 20260501234540 | 55 | 244 | 1.7 | 5.2 | 0.00 | 0.06 | 0.00 | 88 | 1019.3 |
| 20260501233037 | 55 | 246 | 1.7 | 7.0 | 0.00 | 0.06 | 0.00 | 88 | 1019.3 |
| 20260501231539 | 55 | 254 | 1.7 | 5.2 | 0.00 | 0.06 | 0.00 | 88 | 1019.4 |
| 20260501230129 | 55 | 222 | 1.7 | 3.5 | 0.00 | 0.06 | 0.00 | 89 | 1019.4 |
| 20260501224528 | 55 | 250 | 1.7 | 5.2 | 0.00 | 0.06 | 0.06 | 89 | 1019.3 |
| 20260501223027 | 55 | 265 | 1.7 | 4.3 | 0.00 | 0.06 | 0.06 | 88 | 1019.4 |
| 20260501221526 | 55 | 275 | 0.9 | 3.5 | 0.00 | 0.06 | 0.06 | 87 | 1019.4 |
| 20260501220038 | 56 | 245 | 0.9 | 2.6 | 0.00 | 0.06 | 0.06 | 86 | 1019.4 |
| 20260501214529 | 56 | 161 | 0.9 | 2.6 | 0.00 | 0.06 | 0.06 | 86 | 1019.5 |
| 20260501213032 | 56 | 249 | 0.9 | 5.2 | 0.00 | 0.06 | 0.06 | 86 | 1019.3 |
| 20260501211524 | 56 | 248 | 1.7 | 4.3 | 0.00 | 0.06 | 0.06 | 85 | 1019.3 |
| 20260501210023 | 57 | 238 | 2.6 | 4.3 | 0.00 | 0.06 | 0.06 | 85 | 1019.3 |
| 20260501204523 | 57 | 266 | 2.6 | 5.2 | 0.00 | 0.06 | 0.06 | 85 | 1019.4 |
| 20260501203023 | 57 | 254 | 1.7 | 6.1 | 0.00 | 0.06 | 0.06 | 84 | 1019.4 |
| 20260501201522 | 58 | 207 | 1.7 | 4.3 | 0.00 | 0.06 | 0.06 | 82 | 1019.3 |
| 20260501200021 | 59 | 236 | 2.6 | 7.8 | 0.00 | 0.06 | 0.06 | 80 | 1019.3 |
| 20260501194520 | 60 | 264 | 1.7 | 4.3 | 0.00 | 0.06 | 0.06 | 78 | 1019.1 |
| 20260501193033 | 61 | 226 | 0.9 | 6.1 | 0.00 | 0.06 | 0.06 | 76 | 1019.0 |
| 20260501191529 | 61 | 236 | 3.5 | 6.1 | 0.00 | 0.06 | 0.06 | 75 | 1019.1 |
| 20260501190043 | 62 | 218 | 2.6 | 6.1 | 0.00 | 0.06 | 0.06 | 72 | 1018.9 |
| 20260501184531 | 63 | 269 | 0.9 | 4.3 | 0.00 | 0.06 | 0.06 | 70 | 1018.9 |
| 20260501183020 | 63 | 236 | 3.5 | 7.8 | 0.00 | 0.06 | 0.06 | 69 | 1018.8 |
| 20260501181515 | 64 | 193 | 1.7 | 8.7 | 0.00 | 0.06 | 0.06 | 68 | 1018.6 |
| 20260501180015 | 65 | 255 | 5.2 | 13.0 | 0.00 | 0.06 | 0.06 | 66 | 1018.5 |
| 20260501174516 | 67 | 254 | 4.3 | 12.2 | 0.00 | 0.06 | 0.06 | 65 | 1018.2 |
| 20260501173015 | 69 | 248 | 5.2 | 11.3 | 0.00 | 0.06 | 0.06 | 63 | 1018.0 |
| 20260501171512 | 74 | 104 | 4.3 | 9.6 | 0.00 | 0.06 | 0.06 | 54 | 1017.7 |
| 20260501170010 | 74 | 175 | 1.7 | 5.2 | 0.00 | 0.06 | 0.06 | 50 | 1017.5 |
| 20260501164513 | 75 | 201 | 2.6 | 9.6 | 0.00 | 0.06 | 0.06 | 49 | 1017.6 |
| 20260501163006 | 75 | 139 | 6.1 | 9.6 | 0.00 | 0.06 | 0.06 | 47 | 1017.8 |
| 20260501161505 | 75 | 141 | 2.6 | 8.7 | 0.00 | 0.06 | 0.06 | 48 | 1017.8 |
| 20260501160004 | 75 | 146 | 4.3 | 7.8 | 0.00 | 0.06 | 0.06 | 47 | 1017.9 |
| 20260501154503 | 76 | 199 | 2.6 | 8.7 | 0.00 | 0.06 | 0.06 | 46 | 1017.9 |
| 20260501153002 | 76 | 176 | 5.2 | 8.7 | 0.00 | 0.06 | 0.06 | 46 | 1018.1 |
| 20260501151501 | 76 | 153 | 3.5 | 7.8 | 0.00 | 0.06 | 0.06 | 47 | 1018.1 |
| 20260501150109 | 76 | 2 | 0.0 | 8.7 | 0.00 | 0.06 | 0.06 | 46 | 1018.1 |